VE3KSR Weather Reports


Display with metric or nautical units.
time (UTC)temp
F
wind
direction
speed
MPH
gust
MPH
rain 1hr
in
rain 24hr
in
rain mn
in
humidity
%
barometer
mb
20170119144751 31 293 13.0 16.0 0.03 0.00 0.00 100 1019.8
20170119144250 31 308 11.0 13.0 0.03 0.00 0.00 100 1019.6
20170119143753 31 301 10.0 12.0 0.03 0.00 0.00 100 1019.5
20170119143251 31 305 10.0 13.0 0.03 0.00 0.00 100 1019.5
20170119142750 31 301 8.0 9.0 0.03 0.00 0.00 100 1019.5
20170119142251 31 315 9.0 11.0 0.03 0.00 0.00 100 1019.4
20170119141750 31 283 11.0 13.0 0.03 0.00 0.00 100 1019.2
20170119141250 31 300 12.0 14.0 0.03 0.00 0.00 100 1019.1
20170119140750 31 297 10.0 13.0 0.03 0.00 0.00 100 1019.0
20170119140250 30 300 8.0 11.0 0.03 0.00 0.00 100 1019.1
20170119135751 31 311 10.0 12.0 0.03 0.00 0.00 100 1019.1
20170119135251 30 311 10.0 12.0 0.03 0.00 0.00 100 1019.1
20170119134753 31 321 9.0 11.0 0.03 0.00 0.00 100 1019.2
20170119134250 31 308 9.0 11.0 0.03 0.00 0.00 100 1019.1
20170119133754 31 311 5.0 9.0 0.03 0.00 0.00 100 1019.0
20170119133251 31 301 7.0 9.0 0.03 0.00 0.00 100 1019.0
20170119132750 31 312 9.0 10.0 0.03 0.00 0.00 100 1019.1
20170119132250 31 298 8.0 10.0 0.03 0.00 0.00 100 1019.0
20170119131752 31 319 8.0 10.0 0.03 0.00 0.00 100 1019.1
20170119131250 30 325 11.0 13.0 0.03 0.00 0.00 100 1018.8
20170119130751 31 319 12.0 14.0 0.03 0.00 0.00 100 1018.8
20170119130250 31 304 11.0 14.0 0.03 0.00 0.00 100 1018.7
20170119125751 31 294 14.0 17.0 0.03 0.00 0.00 100 1018.6
20170119125251 31 297 10.0 14.0 0.03 0.00 0.00 100 1018.5
20170119124750 31 300 12.0 14.0 0.03 0.00 0.00 100 1018.2
20170119124250 31 300 12.0 14.0 0.03 0.00 0.00 100 1018.1
20170119123751 31 302 10.0 12.0 0.03 0.00 0.00 100 1018.1
20170119123250 31 293 11.0 13.0 0.03 0.00 0.00 100 1017.9
20170119122752 31 304 11.0 15.0 0.03 0.00 0.00 100 1017.8
20170119122250 31 298 11.0 13.0 0.03 0.00 0.00 100 1017.9
20170119121751 30 294 12.0 15.0 0.03 0.00 0.00 100 1017.9
20170119121251 31 304 12.0 16.0 0.03 0.00 0.00 100 1017.9
20170119120751 30 311 10.0 12.0 0.03 0.00 0.00 100 1017.9
20170119120251 30 302 14.0 18.0 0.03 0.00 0.00 100 1018.0
20170119115751 30 300 15.0 18.0 0.03 0.00 0.00 100 1017.9
20170119115251 31 304 14.0 18.0 0.03 0.00 0.00 100 1018.0
20170119114751 31 319 11.0 15.0 0.03 0.00 0.00 100 1018.1
20170119114250 31 328 11.0 14.0 0.03 0.00 0.00 100 1018.1
20170119113751 31 323 13.0 18.0 0.03 0.00 0.00 100 1018.0
20170119113251 31 298 10.0 13.0 0.03 0.00 0.00 100 1018.1
20170119112750 31 315 9.0 11.0 0.03 0.00 0.00 100 1018.2
20170119112251 30 298 14.0 16.0 0.03 0.00 0.00 100 1018.1
20170119111751 31 300 16.0 20.0 0.03 0.00 0.00 100 1018.2
20170119111251 31 300 16.0 19.0 0.03 0.00 0.00 100 1018.2
20170119110752 31 295 16.0 19.0 0.03 0.00 0.00 100 1018.3
20170119110251 31 291 17.0 23.0 0.03 0.00 0.00 100 1018.4
20170119105751 31 295 18.0 22.0 0.03 0.00 0.00 100 1018.4
20170119105251 31 295 19.0 24.0 0.03 0.00 0.00 100 1018.2
20170119104753 31 288 18.0 21.0 0.03 0.00 0.00 100 1018.2
20170119104251 31 288 19.0 22.0 0.03 0.00 0.00 100 1018.1
20170119103751 31 300 18.0 23.0 0.03 0.00 0.00 100 1018.1
20170119103253 31 309 12.0 14.0 0.03 0.00 0.00 100 1018.0
20170119102759 31 300 14.0 20.0 0.03 0.00 0.00 100 1017.8
20170119102254 31 302 14.0 17.0 0.03 0.00 0.00 100 1017.6
20170119101751 31 298 17.0 22.0 0.03 0.00 0.00 100 1017.3
20170119101252 31 301 19.0 24.0 0.03 0.00 0.00 100 1017.1
20170119100752 31 297 18.0 22.0 0.03 0.00 0.00 100 1016.9
20170119100251 31 294 19.0 25.0 0.03 0.00 0.00 100 1017.1
20170119095752 31 300 20.0 26.0 0.03 0.00 0.00 100 1017.2
20170119095251 31 294 23.0 27.0 0.03 0.00 0.00 100 1016.9
20170119094751 31 287 19.0 24.0 0.03 0.00 0.00 100 1017.2
20170119094251 31 294 21.0 28.0 0.03 0.00 0.00 100 1017.1
20170119093752 32 288 19.0 22.0 0.03 0.00 0.00 100 1017.2
20170119093253 32 285 18.0 23.0 0.03 0.00 0.00 100 1017.2
20170119092752 32 294 16.0 21.0 0.03 0.00 0.00 100 1017.2
20170119092432 32 293 18.0 24.0 0.03 0.00 0.00 100 1017.2
20170119092251 32 293 18.0 24.0 0.03 0.00 0.00 100 1017.2
20170119091752 32 304 19.0 23.0 0.03 0.00 0.00 100 1017.3
20170119091251 32 290 15.0 22.0 0.03 0.00 0.00 100 1017.1
20170119090751 32 283 16.0 21.0 0.03 0.00 0.00 100 1017.2
20170119090251 32 297 16.0 20.0 0.03 0.00 0.00 100 1016.9
20170119085751 32 294 16.0 21.0 0.03 0.00 0.00 100 1017.2
20170119085251 32 287 17.0 22.0 0.03 0.00 0.00 100 1017.1
20170119084752 32 297 15.0 18.0 0.03 0.00 0.00 100 1016.9
20170119084251 32 285 14.0 19.0 0.03 0.00 0.00 100 1016.8
20170119083754 32 293 18.0 22.0 0.03 0.00 0.00 100 1016.8
20170119083252 32 291 16.0 21.0 0.03 0.00 0.00 100 1016.7
20170119082751 32 288 17.0 22.0 0.03 0.00 0.00 100 1016.7
20170119082252 32 294 17.0 21.0 0.03 0.00 0.00 100 1017.1
20170119081751 32 297 17.0 23.0 0.03 0.00 0.00 100 1017.1
20170119081254 32 295 16.0 21.0 0.03 0.00 0.00 100 1017.1
20170119080751 32 280 16.0 23.0 0.03 0.00 0.00 100 1017.3
20170119080251 32 291 17.0 23.0 0.03 0.00 0.00 100 1017.3
20170119075753 32 293 15.0 18.0 0.03 0.00 0.00 100 1017.3
20170119075251 32 295 15.0 21.0 0.03 0.00 0.00 100 1017.5
20170119074751 33 290 17.0 24.0 0.03 0.00 0.00 100 1017.4
20170119074251 33 284 17.0 24.0 0.03 0.00 0.00 100 1017.6
20170119073751 33 288 18.0 23.0 0.03 0.00 0.00 100 1017.4
20170119073253 33 295 15.0 21.0 0.03 0.00 0.00 100 1017.4
20170119072751 33 280 16.0 19.0 0.03 0.00 0.00 100 1017.3
20170119072251 33 269 15.0 18.0 0.03 0.00 0.00 100 1017.4
20170119071752 33 301 15.0 19.0 0.03 0.00 0.00 100 1017.2
20170119071251 33 302 15.0 18.0 0.03 0.00 0.00 100 1017.3
20170119070752 33 285 15.0 21.0 0.03 0.00 0.00 100 1017.2
20170119070251 33 293 14.0 18.0 0.03 0.00 0.00 100 1017.1
20170119065752 33 283 15.0 20.0 0.03 0.00 0.00 100 1017.3
20170119065251 33 297 15.0 21.0 0.03 0.00 0.00 100 1017.3
20170119064751 33 309 13.0 17.0 0.03 0.00 0.00 100 1017.3
20170119064252 33 305 14.0 17.0 0.03 0.00 0.00 100 1017.4
20170119063751 33 297 14.0 17.0 0.03 0.00 0.00 100 1017.4
20170119063252 33 298 13.0 16.0 0.03 0.00 0.00 100 1017.2
20170119062751 33 287 15.0 18.0 0.03 0.00 0.00 100 1017.3
20170119062251 33 291 15.0 17.0 0.03 0.00 0.00 100 1017.2
20170119061752 33 284 17.0 20.0 0.03 0.00 0.00 100 1016.9
20170119061251 33 294 15.0 21.0 0.03 0.00 0.00 100 1016.8
20170119060751 33 291 14.0 20.0 0.03 0.00 0.00 100 1016.8
20170119060251 33 293 11.0 14.0 0.03 0.00 0.00 100 1016.9
20170119055751 33 293 13.0 17.0 0.03 0.00 0.00 100 1016.7
20170119055253 33 269 15.0 19.0 0.03 0.00 0.00 100 1016.6
20170119054752 33 288 13.0 18.0 0.03 0.00 0.00 100 1016.5
20170119054252 33 308 11.0 15.0 0.03 0.00 0.00 100 1016.4
20170119053752 33 294 19.0 23.0 0.03 0.00 0.00 100 1016.3
20170119053251 33 298 20.0 26.0 0.03 0.00 0.00 100 1016.2
20170119052752 33 293 16.0 21.0 0.03 0.00 0.00 100 1016.1
20170119052252 34 288 17.0 22.0 0.03 0.00 0.00 100 1016.4
20170119051752 34 284 17.0 23.0 0.03 0.00 0.00 100 1016.4
20170119051252 34 295 18.0 26.0 0.03 0.00 0.00 100 1016.4
20170119050751 34 266 18.0 30.0 0.03 0.00 0.00 100 1016.5
20170119050256 34 290 22.0 30.0 0.03 0.00 0.00 99 1016.7
20170119045751 34 287 17.0 23.0 0.03 0.00 0.00 100 1016.8
20170119045306 34 297 19.0 24.0 0.03 0.00 0.00 100 1016.8
20170119044752 34 290 17.0 24.0 0.03 0.00 0.00 100 1016.9
20170119044252 34 288 22.0 28.0 0.03 0.00 0.00 100 1017.1
20170119043754 34 281 17.0 23.0 0.03 0.00 0.00 100 1017.1
20170119043251 34 294 16.0 25.0 0.03 0.00 0.00 100 1017.2
20170119042752 34 276 19.0 27.0 0.03 0.00 0.00 99 1017.1
20170119042251 34 283 19.0 23.0 0.03 0.00 0.00 99 1017.1
20170119041752 34 280 18.0 25.0 0.03 0.00 0.00 99 1017.3
20170119041252 34 295 17.0 25.0 0.03 0.00 0.00 99 1017.3
20170119040752 34 290 18.0 30.0 0.03 0.00 0.00 99 1016.8
20170119040251 34 287 15.0 21.0 0.03 0.00 0.00 99 1016.7
20170119035754 34 295 17.0 27.0 0.03 0.00 0.00 99 1016.5
20170119035253 34 288 18.0 24.0 0.03 0.00 0.00 99 1016.5
20170119034751 34 290 19.0 26.0 0.03 0.00 0.00 99 1016.5
20170119034252 34 293 16.0 21.0 0.03 0.00 0.00 99 1016.4
20170119033752 34 293 16.0 27.0 0.03 0.00 0.00 99 1016.4
20170119033252 34 287 15.0 20.0 0.03 0.00 0.00 98 1016.4
20170119032752 34 280 15.0 21.0 0.03 0.00 0.00 98 1016.3
20170119032254 34 294 16.0 22.0 0.03 0.00 0.00 96 1016.6
20170119031752 34 291 16.0 24.0 0.03 0.00 0.00 97 1016.7
20170119031252 34 297 17.0 23.0 0.03 0.00 0.00 98 1016.8
20170119030752 34 297 15.0 21.0 0.03 0.00 0.00 98 1016.9
20170119030253 34 294 17.0 23.0 0.03 0.00 0.00 97 1016.9
20170119025754 34 293 16.0 22.0 0.03 0.00 0.00 99 1016.8
20170119025253 34 263 16.0 24.0 0.03 0.00 0.00 98 1016.8
20170119024752 34 295 14.0 24.0 0.03 0.00 0.00 97 1016.9
20170119024253 34 297 16.0 22.0 0.03 0.00 0.00 98 1017.2
20170119023752 34 294 13.0 18.0 0.03 0.00 0.00 97 1016.9
20170119023253 34 291 16.0 26.0 0.03 0.00 0.00 99 1016.7
20170119022752 34 294 17.0 21.0 0.03 0.00 0.00 98 1016.7
20170119022253 34 287 16.0 23.0 0.03 0.00 0.00 98 1016.5
20170119021752 34 305 12.0 16.0 0.03 0.00 0.00 97 1016.3
20170119021252 34 290 14.0 20.0 0.03 0.00 0.00 98 1016.2
20170119020755 34 267 13.0 17.0 0.03 0.00 0.00 95 1016.0
20170119020252 34 281 12.0 18.0 0.03 0.00 0.00 96 1016.0
20170119015845 34 269 14.0 19.0 0.03 0.00 0.00 98 1016.2
20170119015752 34 269 14.0 19.0 0.03 0.00 0.00 98 1016.2
20170119015252 34 293 12.0 17.0 0.03 0.00 0.00 95 1016.1
20170119014753 34 294 13.0 20.0 0.03 0.00 0.00 97 1016.1
20170119014252 34 260 11.0 16.0 0.03 0.00 0.00 95 1016.1
20170119013752 34 290 12.0 21.0 0.03 0.00 0.00 97 1016.1
20170119013252 34 271 12.0 17.0 0.03 0.00 0.00 98 1016.1
20170119012755 34 298 12.0 16.0 0.03 0.00 0.00 97 1016.2
20170119012252 34 259 12.0 17.0 0.03 0.00 0.00 97 1016.3
20170119011754 34 259 12.0 18.0 0.03 0.00 0.00 96 1016.4
20170119011254 34 271 14.0 18.0 0.03 0.00 0.00 98 1016.5
20170119010752 34 263 13.0 18.0 0.03 0.00 0.00 100 1016.7
20170119010252 33 300 12.0 16.0 0.03 0.00 0.00 100 1016.7
20170119005752 33 298 11.0 15.0 0.03 0.00 0.00 100 1016.8
20170119005252 33 280 11.0 14.0 0.03 0.00 0.00 98 1016.7
20170119004753 33 256 11.0 16.0 0.03 0.00 0.00 96 1016.9
20170119004252 33 255 13.0 18.0 0.03 0.00 0.00 96 1016.8
20170119003753 33 245 14.0 17.0 0.03 0.00 0.00 95 1016.8
20170119003253 33 252 13.0 18.0 0.03 0.00 0.00 96 1016.9
20170119002754 33 255 13.0 16.0 0.03 0.00 0.00 96 1016.9
20170119002252 33 287 13.0 19.0 0.03 0.00 0.00 98 1017.1
20170119001752 33 294 11.0 18.0 0.03 0.00 0.00 97 1017.2
20170119001252 33 287 12.0 17.0 0.03 0.00 0.00 97 1017.1
20170119000752 33 269 12.0 17.0 0.03 0.00 0.00 98 1017.2
20170119000254 33 266 12.0 17.0 0.03 0.00 0.00 100 1017.2
20170118235752 33 248 10.0 16.0 0.03 0.00 0.00 99 1016.9
20170118235252 33 259 11.0 15.0 0.03 0.00 0.00 99 1016.9
20170118234754 33 256 10.0 13.0 0.03 0.00 0.00 100 1016.6
20170118234252 33 300 11.0 15.0 0.03 0.00 0.00 100 1016.7
20170118233753 33 276 11.0 15.0 0.03 0.00 0.00 100 1016.6
20170118233252 33 301 10.0 14.0 0.03 0.00 0.00 100 1016.7
20170118232753 33 300 11.0 15.0 0.03 0.00 0.00 99 1016.9
20170118232253 33 269 10.0 15.0 0.03 0.00 0.00 99 1016.8
20170118231752 33 267 11.0 14.0 0.03 0.00 0.00 99 1016.7
20170118231253 33 298 11.0 16.0 0.03 0.00 0.00 100 1016.7
20170118230753 33 298 9.0 14.0 0.03 0.00 0.00 100 1016.9
20170118230252 33 297 11.0 17.0 0.03 0.00 0.00 100 1016.8
20170118225752 33 298 11.0 16.0 0.03 0.00 0.00 100 1016.9
20170118225252 33 290 11.0 17.0 0.03 0.00 0.00 100 1016.8
20170118224752 33 298 11.0 15.0 0.03 0.00 0.00 100 1017.1
20170118224252 33 285 12.0 17.0 0.03 0.00 0.00 100 1017.1
20170118223752 33 294 11.0 14.0 0.03 0.00 0.00 99 1017.3
20170118223252 33 291 11.0 15.0 0.03 0.00 0.00 99 1017.3
20170118222752 33 297 12.0 17.0 0.03 0.00 0.00 99 1017.4
20170118222254 33 301 14.0 17.0 0.03 0.00 0.00 99 1017.5
20170118221752 33 293 13.0 16.0 0.03 0.00 0.00 98 1017.7
20170118221253 33 301 12.0 16.0 0.03 0.00 0.00 98 1017.6
20170118220756 33 311 13.0 16.0 0.03 0.00 0.00 98 1017.5
20170118220252 33 294 13.0 15.0 0.03 0.00 0.00 98 1017.4
20170118215753 33 284 13.0 15.0 0.03 0.00 0.00 99 1017.1
20170118215253 33 287 13.0 16.0 0.03 0.00 0.00 99 1016.8
20170118214756 33 293 13.0 16.0 0.03 0.00 0.00 99 1016.7
20170118214252 33 298 12.0 15.0 0.03 0.00 0.00 98 1016.7
20170118213755 33 295 11.0 14.0 0.03 0.00 0.00 98 1016.8
20170118213253 33 300 10.0 15.0 0.03 0.00 0.00 98 1016.7
20170118212753 33 300 12.0 14.0 0.03 0.00 0.00 98 1017.1
20170118212252 33 297 12.0 15.0 0.03 0.00 0.00 98 1017.2
20170118211752 33 304 11.0 14.0 0.03 0.00 0.00 98 1017.3
20170118211252 33 300 13.0 16.0 0.03 0.00 0.00 98 1017.3
20170118210753 33 297 12.0 17.0 0.03 0.00 0.00 98 1017.5
20170118210252 33 302 11.0 15.0 0.03 0.00 0.00 98 1017.5
20170118205752 33 305 14.0 18.0 0.03 0.00 0.00 98 1017.5
20170118205254 33 291 14.0 18.0 0.03 0.00 0.00 98 1017.5
20170118204753 33 304 15.0 20.0 0.03 0.00 0.00 98 1017.4
20170118204253 33 302 15.0 18.0 0.03 0.00 0.00 99 1017.4
20170118203752 33 302 16.0 19.0 0.03 0.00 0.00 99 1017.3
20170118203252 33 297 17.0 20.0 0.03 0.00 0.00 99 1017.1
20170118202752 33 298 14.0 18.0 0.03 0.00 0.00 99 1016.8
20170118202253 33 305 15.0 20.0 0.03 0.00 0.00 99 1016.6
20170118200752 33 294 16.0 19.0 0.03 0.00 0.00 100 1016.3
20170118200256 33 302 12.0 17.0 0.03 0.00 0.00 100 1016.3
20170118195754 33 295 14.0 19.0 0.03 0.00 0.00 100 1016.3
20170118195253 33 304 15.0 18.0 0.03 0.00 0.00 100 1016.3
20170118194752 33 308 17.0 21.0 0.03 0.00 0.00 100 1016.4
20170118194258 33 291 15.0 19.0 0.03 0.00 0.00 100 1016.3
20170118193752 33 288 17.0 20.0 0.03 0.00 0.00 100 1016.1
20170118193252 33 288 18.0 21.0 0.03 0.00 0.00 100 1016.1
20170118192753 33 297 17.0 22.0 0.03 0.00 0.00 100 1016.1
20170118192253 33 291 15.0 21.0 0.03 0.00 0.00 100 1016.0
20170118191753 33 294 14.0 18.0 0.03 0.00 0.00 99 1016.0
20170118191253 33 295 14.0 19.0 0.03 0.00 0.00 99 1016.0
20170118190753 33 294 13.0 18.0 0.03 0.00 0.00 98 1016.0
20170118190253 33 293 13.0 18.0 0.03 0.00 0.00 98 1015.9
20170118185752 33 290 14.0 19.0 0.03 0.00 0.00 97 1015.8
20170118185253 33 300 14.0 18.0 0.03 0.00 0.00 97 1015.9
20170118184753 33 287 13.0 18.0 0.03 0.00 0.00 97 1016.0
20170118184254 33 307 15.0 19.0 0.03 0.00 0.00 99 1016.0
20170118183753 33 304 14.0 17.0 0.03 0.00 0.00 98 1016.0
20170118183253 33 287 15.0 18.0 0.03 0.00 0.00 97 1016.1
20170118182754 33 307 12.0 15.0 0.03 0.00 0.00 97 1016.1
20170118182253 33 301 14.0 17.0 0.03 0.00 0.00 99 1016.1
20170118181753 33 294 15.0 18.0 0.03 0.00 0.00 98 1016.0
20170118181253 33 307 13.0 17.0 0.03 0.00 0.00 99 1016.3
20170118180753 33 264 14.0 17.0 0.03 0.00 0.00 97 1016.2
20170118180254 33 308 14.0 20.0 0.03 0.00 0.00 100 1016.0
20170118175753 33 301 15.0 18.0 0.03 0.00 0.00 100 1015.9
20170118175253 33 325 14.0 17.0 0.03 0.00 0.00 99 1015.8
20170118174753 33 290 16.0 20.0 0.03 0.00 0.00 100 1015.7
20170118174254 33 315 14.0 18.0 0.03 0.00 0.00 100 1015.7
20170118173753 33 315 12.0 15.0 0.03 0.00 0.00 100 1015.7
20170118173253 33 302 13.0 17.0 0.03 0.00 0.00 99 1015.9
20170118172753 33 300 13.0 17.0 0.03 0.00 0.00 100 1016.0
20170118172253 33 325 13.0 16.0 0.03 0.00 0.00 99 1016.0
20170118171753 33 318 12.0 17.0 0.03 0.00 0.00 100 1016.1
20170118171253 33 285 13.0 18.0 0.03 0.00 0.00 100 1016.1
20170118170753 33 304 13.0 17.0 0.03 0.00 0.00 99 1016.2
20170118170253 33 307 13.0 16.0 0.03 0.00 0.00 99 1016.1
20170118165753 33 329 12.0 15.0 0.03 0.00 0.00 99 1016.2
20170118165253 33 318 13.0 16.0 0.03 0.00 0.00 99 1016.3
20170118164753 33 326 13.0 15.0 0.03 0.00 0.00 99 1016.6
20170118164253 33 326 14.0 18.0 0.03 0.00 0.00 98 1016.6
20170118163753 33 298 16.0 22.0 0.03 0.00 0.00 99 1016.7
20170118163253 33 323 14.0 19.0 0.03 0.00 0.00 99 1016.8
20170118162753 33 278 14.0 18.0 0.03 0.00 0.00 99 1016.8
20170118162253 33 294 15.0 20.0 0.03 0.00 0.00 99 1016.6
20170118161754 33 319 13.0 17.0 0.03 0.00 0.00 99 1016.6
20170118161253 33 322 15.0 20.0 0.03 0.00 0.00 99 1016.4
20170118160753 33 323 14.0 17.0 0.03 0.00 0.00 100 1016.3
20170118160253 33 308 13.0 19.0 0.03 0.00 0.00 99 1016.1
20170118155754 33 314 13.0 16.0 0.03 0.00 0.00 99 1016.2
20170118155253 33 288 13.0 16.0 0.03 0.00 0.00 99 1016.1
20170118154753 33 297 14.0 19.0 0.03 0.00 0.00 99 1016.1
20170118154253 33 319 14.0 18.0 0.03 0.00 0.00 99 1016.2
20170118153754 33 298 16.0 21.0 0.03 0.00 0.00 99 1016.2
20170118153253 33 307 16.0 21.0 0.03 0.00 0.00 99 1016.2
20170118152753 33 321 15.0 18.0 0.03 0.00 0.00 99 1016.4
20170118152253 33 315 15.0 19.0 0.03 0.00 0.00 99 1016.3
20170118151753 33 326 14.0 17.0 0.03 0.00 0.00 99 1016.2
20170118151253 33 280 15.0 18.0 0.03 0.00 0.00 99 1016.3
20170118150753 33 314 15.0 18.0 0.03 0.00 0.00 99 1016.1
20170118150256 33 298 15.0 20.0 0.03 0.00 0.00 99 1016.1
20170118145753 33 290 14.0 19.0 0.03 0.00 0.00 99 1016.2
20170118145253 33 316 14.0 20.0 0.03 0.00 0.00 99 1016.3